COSMOS 2491 DEB, 44912

Orbit data source: Space-Track

COSMOS 2491 DEB, 44912 is space debris in LEO originally from a launch on Wed, 25 Dec 2013 UTC launched from the Plesetsk Missile And Space Complex (PKMTR). Debris objects in space refer to the collection of defunct objects orbiting the Earth. Examples of debris include non-operational satellites, rocket bodies, and fragments generated from explosions, collisions, or faulty payload assembly.

Loading next visibility...
COSMOS 2491 DEB details
Identifier
44912, 2013-076F
Orbit
LEO
Last TLE update20 hours ago
Origin
Flag of CISTsNIIKhM (CIS)
ManufacturerTsNIIKhM
MissionSpacecraft
Bus & MotorUnknown
MassUnknown
Launch date (UTC)
2013-12-25 (11 years ago)
Launch vehicleUnknown
Launch site
Plesetsk Missile And Space Complex (PKMTR)
Object type
Payload
Rocket body
Debris
Shape & HBRUnknown
Radar Cross SectionSmall (<0.1 m²)

Expand to show TLE details & history

TLE from 20 hours ago
0 COSMOS 2491 DEB
1 44912U 13076F   24361.02633081  .00009989  00000-0  46058-1 0  9995
2 44912  82.4332 103.0005 0189347 268.6173  89.3227 12.71133755229300
Epoch: 2024-12-26T00:37Z
Definitive object data (Epoch: 2024-12-26T00:37:54.981Z)
Latitude0.00001°
Longitude-1.49022°
Altitude1,381.109 km
Speed7.168 km/s
True Right ascension06h 52m 00s
True Declination0° 00' 00"
Sunlit
Object was in full shadow at TLE epoch
Visualization TLE readout
Latitude-58.06322°
Longitude-14.29629°
Altitude1,278.006 km
Speed7.273 km/s
Apparent Right ascension07h 22m 18s
Apparent Declination-51° 08' 49"
Sunlit
Object is in daylight
Visualization observer readout
Local Sidereal Time20:29:23
Azimuth139.493° SSE
Elevation-73.819°
Doppler factor1
Orbital elements
Apogee altitude1,521.434 km
Perigee altitude1,227.841 km
Semi-major axis7,752.774 km
Eccentricity0.0189347
Inclination82.4332°
RAAN103.0005°
Arg. of periapsis268.6173°
True anomaly91.49239°
Mean anomaly89.3227°
Eccentric anomaly90.40755°
Mean motion3.17949 °/min
BSTAR0.046058
Orbital period113.23 mins
Loading maneuver chart data...
Loading historical data...
Loading historical data...
Loading historical data...
Loading historical data...
Loading historical data...
Loading historical data...
Loading historical data...

COSMOS 2491 DEB Visibility forecast

Observer location: undefined°, undefined

Span
Click to sort rows by Start time (UTC) header in descending order
Start Az.
Max El. time (UTC)
Max El. Az.
Max El.
End time (UTC)
End Az.
16 mins2024-12-27 06:56:27.499Z159.098° S2024-12-27 07:04:27.499Z81.576° E37.163°2024-12-27 07:12:27.499Z17.972° NNE
14 mins2024-12-27 08:52:27.499Z230.909° WSW2024-12-27 08:58:27.499Z287.709° WNW30.698°2024-12-27 09:06:27.499Z353.031° N
10 mins2024-12-27 16:56:27.499Z26.957° NE2024-12-27 17:01:27.499Z65.759° ENE18.232°2024-12-27 17:06:27.499Z103.371° ESE
15 mins2024-12-27 18:49:27.499Z351.957° N2024-12-27 18:56:27.499Z323.352° NNW44.973°2024-12-27 19:04:27.499Z175.391° S
8 mins2024-12-27 20:45:27.499Z313.03° NW2024-12-27 20:49:27.499Z283.144° WNW16.274°2024-12-27 20:53:27.499Z252.718° W
|